Change the Weather History Date:

Tuesday, June 3, 2014

  Actual Average Record
Temperature  
Mean Temperature 76 °F 74 °F  
Max Temperature 87 °F 84 °F 96 °F (1936)
Min Temperature 65 °F 63 °F 41 °F (1956)
Degree Days  
Heating Degree Days 0 0  
Month to date heating degree days 0 0  
Since 1 June heating degree days 0 0  
Since 1 July heating degree days 3396 3238  
Cooling Degree Days 11 9  
Month to date cooling degree days 34 26  
Year to date cooling degree days 292 222  
Since 1 June cooling degree days 34 26  
Growing Degree Days 26 (Base 50)    
Moisture  
Dew Point 63 °F    
Average Humidity 68    
Maximum Humidity 87    
Minimum Humidity 48    
Precipitation  
Precipitation 0.00 in 0.12 in 2.94 in (1909)
Month to date precipitation 0.01 0.37  
Year to date precipitation 17.30 23.19  
Snow  
Snow 0.00 in 0.00 in - ()
Month to date snowfall 0.0 0.0  
Since 1 June snowfall 0.0 0.0  
Since 1 July snowfall 8.4 3.9  
Snow Depth 0.00 in    
Sea Level Pressure  
Sea Level Pressure 30.07 in    
Wind  
Wind Speed 2 mph (SSE)    
Max Wind Speed 13 mph    
Max Gust Speed 15 mph    
Visibility 10 miles    
Events      
T = Trace of Precipitation, MM = Missing Value Source: NWS Daily Summary

Daily Weather History Graph

Daily Weather History Graph

Search for Another Location

Airport or City:

Trip Planner

Search our weather history database for the weather conditions in past years. The results will help you decide how hot, cold, wet, or windy it might be!

Date:

Astronomy

Jun. 03, 2014 Rise Set
Actual Time 6:27 AM EDT 8:50 PM EDT
Civil Twilight 5:58 AM EDT 9:20 PM EDT
Nautical Twilight 5:22 AM EDT 9:56 PM EDT
Astronomical Twilight 4:42 AM EDT 10:35 PM EDT
Moon 11:41 AM EDT (6/3) 12:25 AM EDT (6/3)
Length of Visible Light 15h 22m
Length of Day
14h 23m
Waxing Crescent, 30% of the Moon is Illuminated
Jun 3
Waxing Crescent
Jun 5
First Quarter
Jun 13
Full
Jun 19
Last Quarter
Jun 27
New

Hourly Weather History & Observations

Time (EDT) Temp. Heat Index Dew Point Humidity Pressure Visibility Wind Dir Wind Speed Gust Speed Precip Events Conditions
12:53 AM 71.1 °F - 57.9 °F 63% 30.13 in 10.0 mi Calm Calm - N/A   Clear
1:53 AM 70.0 °F - 59.0 °F 68% 30.12 in 10.0 mi Calm Calm - N/A   Overcast
2:53 AM 69.1 °F - 60.1 °F 73% 30.11 in 10.0 mi Calm Calm - N/A   Scattered Clouds
3:53 AM 66.9 °F - 61.0 °F 81% 30.11 in 10.0 mi Calm Calm - N/A   Clear
4:53 AM 64.9 °F - 60.1 °F 84% 30.11 in 10.0 mi Calm Calm - N/A   Clear
5:53 AM 66.0 °F - 60.1 °F 81% 30.11 in 10.0 mi Calm Calm - N/A   Mostly Cloudy
6:53 AM 66.9 °F - 60.1 °F 79% 30.12 in 10.0 mi Calm Calm - N/A   Mostly Cloudy
7:53 AM 69.1 °F - 61.0 °F 75% 30.12 in 10.0 mi Calm Calm - N/A   Mostly Cloudy
8:53 AM 73.0 °F - 62.1 °F 68% 30.13 in 10.0 mi SSW 3.5 mph - N/A   Mostly Cloudy
9:53 AM 75.0 °F - 63.0 °F 66% 30.13 in 10.0 mi Calm Calm - N/A   Mostly Cloudy
10:53 AM 77.0 °F - 64.0 °F 64% 30.11 in 10.0 mi South 3.5 mph - N/A   Mostly Cloudy
11:05 AM 78.1 °F - 63.0 °F 60% 30.13 in 10.0 mi Calm Calm - N/A   Mostly Cloudy
11:53 AM 80.1 °F 81.7 °F 64.0 °F 58% 30.11 in 10.0 mi Variable 3.5 mph - N/A   Mostly Cloudy
12:19 PM 82.0 °F 83.1 °F 63.0 °F 52% 30.12 in 10.0 mi Calm Calm - N/A   Mostly Cloudy
12:53 PM 82.9 °F 84.4 °F 64.0 °F 53% 30.09 in 10.0 mi Calm Calm - N/A   Mostly Cloudy
1:53 PM 82.9 °F 84.0 °F 63.0 °F 51% 30.06 in 10.0 mi Variable 4.6 mph - N/A   Mostly Cloudy
2:53 PM 84.0 °F 84.9 °F 63.0 °F 49% 30.04 in 10.0 mi Variable 4.6 mph - N/A   Mostly Cloudy
3:53 PM 82.0 °F 84.1 °F 66.0 °F 58% 30.04 in 10.0 mi North 8.1 mph - N/A   Mostly Cloudy
4:53 PM 84.9 °F 86.6 °F 64.9 °F 51% 30.02 in 10.0 mi East 4.6 mph - N/A   Mostly Cloudy
5:53 PM 84.9 °F 86.6 °F 64.9 °F 51% 30.00 in 10.0 mi Calm Calm - N/A   Scattered Clouds
6:53 PM 84.0 °F 85.4 °F 64.0 °F 51% 29.99 in 10.0 mi SSE 4.6 mph - N/A   Scattered Clouds
7:53 PM 82.9 °F 85.0 °F 66.0 °F 56% 29.99 in 10.0 mi ESE 6.9 mph - N/A   Scattered Clouds
8:53 PM 81.0 °F 83.8 °F 68.0 °F 65% 29.99 in 10.0 mi SSW 4.6 mph - N/A   Scattered Clouds
9:53 PM 78.1 °F - 66.9 °F 68% 29.99 in 10.0 mi South 4.6 mph - N/A   Scattered Clouds
10:53 PM 75.9 °F - 66.9 °F 74% 30.00 in 10.0 mi Calm Calm - N/A   Clear
11:53 PM 73.9 °F - 66.9 °F 79% 30.00 in 10.0 mi Calm Calm - N/A   Clear